Date String (YYYY-MM-DD hh:mm:ss) UTC,Instrument flags,Ambient pressure (hPa),Sample flow (lpm),Bypass flow (lpm),Sample temperature (°C),Ambient temperature (°C),ASC tube jacket temperature (°C),LED temperature (°C),Box temperature (°C),Sample RH (%),Span deviation,Mass concentration (μg/m³),Mass concentration (μg/m³),Mass concentration (μg/m³)
DateTimeUTC,F1_M11,P_M11,Q1_M11,Q2_M11,T1_M11,T2_M11,T3_M11,T4_M11,T5_M11,U1_M11,ZSPAN_M11,X2_M11,X0_M11,X1_M11
2021-10-28 10:00:00,,0829.1,5.01,0.00,24.1,23.4,00.0,33.3,25.9,17.5,0000.0,0002.15,0007.93,0001.47
2021-10-28 10:01:00,,0829.1,5.01,0.00,24.1,23.3,00.0,33.3,25.9,17.5,0000.0,0002.15,0007.95,0001.46
2021-10-28 10:02:00,,0829.2,4.98,0.00,24.0,23.3,00.0,33.3,25.8,17.5,0000.0,0002.12,0008.00,0001.45
2021-10-28 10:03:00,,0829.3,5.00,0.00,24.0,23.2,00.0,33.2,25.8,17.5,0000.0,0002.05,0008.06,0001.44
2021-10-28 10:04:00,,0829.2,5.01,0.00,24.0,23.2,00.0,33.2,25.8,17.5,0000.0,0002.01,0007.38,0001.43
2021-10-28 10:05:00,,0829.2,4.99,0.00,24.0,23.3,00.0,33.2,25.8,17.4,0000.0,0002.03,0007.07,0001.44
2021-10-28 10:06:00,,0829.2,5.01,0.00,24.0,23.3,00.0,33.2,25.8,17.4,0000.0,0002.04,0006.94,0001.44
2021-10-28 10:07:00,,0829.1,5.00,0.00,24.0,23.3,00.0,33.2,25.8,17.4,0000.0,0002.07,0006.67,0001.46
2021-10-28 10:08:00,,0829.1,5.01,0.00,24.0,23.3,00.0,33.2,25.8,17.4,0000.0,0002.03,0004.73,0001.47
2021-10-28 10:09:00,,0829.2,4.99,0.00,24.0,23.3,00.0,33.2,25.8,17.3,0000.0,0002.03,0004.51,0001.48
2021-10-28 10:10:00,,0829.3,5.00,0.00,24.0,23.2,00.0,33.2,25.7,17.4,0000.0,0002.07,0004.27,0001.50
2021-10-28 10:11:00,,0829.3,5.00,0.00,24.0,23.2,00.0,33.2,25.7,17.4,0000.0,0002.13,0004.19,0001.51
2021-10-28 10:12:00,,0829.3,4.99,0.00,23.9,23.2,00.0,33.1,25.6,17.5,0000.0,0002.13,0004.18,0001.52
2021-10-28 10:13:00,,0829.2,5.00,0.00,23.9,23.1,00.0,33.1,25.6,17.5,0000.0,0002.17,0004.30,0001.55
2021-10-28 10:14:00,,0829.1,4.99,0.00,23.9,23.1,00.0,33.1,25.6,17.5,0000.0,0002.22,0004.15,0001.58
2021-10-28 10:15:00,,0829.1,5.01,0.00,23.8,23.0,00.0,33.1,25.5,17.5,0000.0,0002.24,0004.13,0001.58
2021-10-28 10:16:00,,0829.2,5.01,0.00,23.8,23.0,00.0,33.1,25.5,17.5,0000.0,0002.29,0004.56,0001.59
2021-10-28 10:17:00,,0829.3,4.99,0.00,23.8,23.0,00.0,33.0,25.5,17.5,0000.0,0002.31,0005.51,0001.60
2021-10-28 10:18:00,,0829.2,5.01,0.00,23.8,23.0,00.0,33.0,25.5,17.5,0000.0,0002.31,0006.58,0001.61
2021-10-28 10:19:00,,0829.2,5.00,0.00,23.7,22.9,00.0,33.0,25.5,17.6,0000.0,0002.39,0007.50,0001.62
2021-10-28 10:20:00,,0829.2,4.99,0.00,23.7,22.9,00.0,33.0,25.5,17.6,0000.0,0002.47,0007.80,0001.64
2021-10-28 10:21:00,,0829.2,5.01,0.00,23.7,22.9,00.0,33.0,25.4,17.7,0000.0,0002.51,0008.28,0001.65
2021-10-28 10:22:00,,0829.2,4.99,0.00,23.6,22.8,00.0,32.9,25.3,17.8,0000.0,0002.48,0008.52,0001.66
2021-10-28 10:23:00,,0829.3,5.00,0.00,23.6,22.8,00.0,32.9,25.2,17.8,0000.0,0002.58,0008.73,0001.68
2021-10-28 10:24:00,,0829.3,4.99,0.00,23.6,22.8,00.0,32.9,25.2,18.0,0000.0,0002.55,0009.60,0001.68
2021-10-28 10:25:00,,0829.3,4.99,0.00,23.5,22.7,00.0,32.9,25.2,18.1,0000.0,0002.57,0010.71,0001.68
2021-10-28 10:26:00,,0829.2,5.00,0.00,23.5,22.7,00.0,32.8,25.2,18.0,0000.0,0002.62,0010.78,0001.70
2021-10-28 10:27:00,,0829.3,5.01,0.00,23.5,22.7,00.0,32.8,25.1,18.0,0000.0,0002.64,0010.69,0001.72
2021-10-28 10:28:00,,0829.3,4.98,0.00,23.5,22.6,00.0,32.8,25.1,18.0,0000.0,0002.65,0010.24,0001.71
2021-10-28 10:29:00,,0829.3,5.01,0.00,23.4,22.6,00.0,32.8,25.1,18.1,0000.0,0002.65,0009.65,0001.71
2021-10-28 10:30:00,,0829.3,4.99,0.00,23.4,22.5,00.0,32.7,25.0,18.1,0000.0,0002.59,0009.15,0001.71
2021-10-28 10:31:00,,0829.3,5.01,0.00,23.3,22.5,00.0,32.7,25.0,18.2,0000.0,0002.58,0008.94,0001.70
2021-10-28 10:32:00,,0829.2,5.00,0.00,23.3,22.5,00.0,32.7,25.0,18.3,0000.0,0002.61,0008.80,0001.70
2021-10-28 10:33:00,,0829.2,4.99,0.00,23.3,22.5,00.0,32.6,25.0,18.3,0000.0,0002.63,0008.60,0001.70
2021-10-28 10:34:00,,0829.2,5.01,0.00,23.3,22.5,00.0,32.6,25.0,18.3,0000.0,0002.58,0008.51,0001.69
2021-10-28 10:35:00,,0829.2,5.00,0.00,23.3,22.5,00.0,32.6,25.0,18.4,0000.0,0002.60,0007.66,0001.69
2021-10-28 10:36:00,,0829.2,5.00,0.00,23.2,22.4,00.0,32.6,24.9,18.5,0000.0,0002.62,0006.65,0001.69
2021-10-28 10:37:00,,0829.2,5.01,0.00,23.2,22.4,00.0,32.5,24.9,18.5,0000.0,0002.57,0006.25,0001.68
2021-10-28 10:38:00,,0829.2,5.01,0.00,23.2,22.4,00.0,32.5,24.8,18.5,0000.0,0002.53,0006.20,0001.67
2021-10-28 10:39:00,,0829.2,4.99,0.00,23.1,22.3,00.0,32.5,24.8,18.5,0000.0,0002.55,0006.16,0001.68
2021-10-28 10:40:00,,0829.2,5.02,0.00,23.1,22.3,00.0,32.5,24.8,18.6,0000.0,0002.58,0006.80,0001.68
2021-10-28 10:41:00,,0829.3,4.99,0.00,23.1,22.3,00.0,32.4,24.7,18.6,0000.0,0002.60,0006.92,0001.66
2021-10-28 10:42:00,,0829.3,5.00,0.00,23.1,22.3,00.0,32.4,24.7,18.6,0000.0,0002.55,0006.80,0001.65
2021-10-28 10:43:00,,0829.3,5.00,0.00,23.0,22.2,00.0,32.4,24.7,18.7,0000.0,0002.51,0006.07,0001.66
2021-10-28 10:44:00,,0829.2,5.01,0.00,23.0,22.2,00.0,32.4,24.7,18.7,0000.0,0002.55,0006.34,0001.65
2021-10-28 10:45:00,,0829.3,4.99,0.00,23.0,22.2,00.0,32.3,24.7,18.7,0000.0,0002.54,0006.54,0001.64
2021-10-28 10:46:00,,0829.2,5.01,0.00,23.0,22.2,00.0,32.3,24.7,18.7,0000.0,0002.49,0006.33,0001.63
2021-10-28 10:47:00,,0829.2,5.00,0.00,23.0,22.2,00.0,32.3,24.7,18.7,0000.0,0002.48,0005.68,0001.63
2021-10-28 10:48:00,,0829.3,5.00,0.00,23.0,22.2,00.0,32.3,24.7,18.7,0000.0,0002.49,0006.72,0001.63
2021-10-28 10:49:00,,0829.3,4.99,0.00,22.9,22.2,00.0,32.3,24.6,18.7,0000.0,0002.48,0006.61,0001.62
2021-10-28 10:50:00,,0829.3,5.00,0.00,22.9,22.2,00.0,32.2,24.6,18.7,0000.0,0002.48,0006.85,0001.60
2021-10-28 10:51:00,,0829.2,5.00,0.00,22.9,22.1,00.0,32.2,24.6,18.7,0000.0,0002.51,0006.81,0001.61
2021-10-28 10:52:00,,0829.2,4.99,0.00,22.9,22.1,00.0,32.2,24.6,18.7,0000.0,0002.49,0006.83,0001.61
2021-10-28 10:53:00,,0829.2,5.02,0.00,22.9,22.1,00.0,32.2,24.6,18.6,0000.0,0002.50,0006.83,0001.60
2021-10-28 10:54:00,,0829.2,4.99,0.00,22.9,22.1,00.0,32.2,24.6,18.6,0000.0,0002.44,0006.84,0001.58
2021-10-28 10:55:00,,0829.4,5.00,0.00,22.9,22.1,00.0,32.1,24.6,18.5,0000.0,0002.38,0007.25,0001.57
2021-10-28 10:56:00,,0829.4,5.00,0.00,22.8,22.1,00.0,32.1,24.6,18.5,0000.0,0002.36,0007.73,0001.56
2021-10-28 10:57:00,,0829.4,4.99,0.00,22.8,22.1,00.0,32.1,24.6,18.5,0000.0,0002.36,0008.25,0001.55
2021-10-28 10:58:00,,0829.4,5.00,0.00,22.8,22.1,00.0,32.1,24.6,18.5,0000.0,0002.31,0008.18,0001.55
2021-10-28 10:59:00,,0829.3,5.01,0.00,22.8,22.1,00.0,32.1,24.5,18.5,0000.0,0002.32,0007.61,0001.54
